Weather History for Andalusia, AL

Change the Weather History Date:

Wednesday, March 20, 2013

  Actual Average (KCEW) Record (KCEW)
Temperature  
Mean Temperature 55 °F -  
Max Temperature 64 °F 70 °F 86 °F (2011)
Min Temperature 46 °F 48 °F 33 °F (1951)
Degree Days  
Heating Degree Days 10    
Growing Degree Days 5 (Base 50)    
Moisture  
Dew Point 29 °F    
Average Humidity 35    
Maximum Humidity 61    
Minimum Humidity 22    
Precipitation  
Precipitation 0.00 in - - ()
Sea Level Pressure  
Sea Level Pressure 30.03 in    
Wind  
Wind Speed 6 mph (NE)    
Max Wind Speed 14 mph    
Max Gust Speed 18 mph    
Visibility 10 miles    
Events      
Averages and records for this station are not official NWS values.
T = Trace of Precipitation, MM = Missing Value Source: NWS Daily Summary

Daily Weather History Graph

Daily Weather History Graph

Search for Another Location

Airport:

Trip Planner

Search our weather history database for the weather conditions in past years. The results will help you decide how hot, cold, wet, or windy it might be!

Date:

Astronomy

Mar. 20, 2013 Rise Set
Actual Time 6:49 AM CDT 6:57 PM CDT
Civil Twilight 6:24 AM CDT 7:21 PM CDT
Nautical Twilight 5:56 AM CDT 7:49 PM CDT
Astronomical Twilight 5:28 AM CDT 8:18 PM CDT
Moon 12:52 PM CDT (3/20) 2:07 AM CDT (3/20)
Length of Visible Light 12h 56m
Length of Day
12h 08m
First Quarter, 59% of the Moon is Illuminated
Mar 20
First Quarter
Mar 27
Full
Apr 2
Last Quarter
Apr 10
New
Apr 18
First Quarter

Hourly Weather History & Observations

Time (CDT) Temp. Dew Point Humidity Pressure Visibility Wind Dir Wind Speed Gust Speed Precip Events Conditions
12:56 AM 59.0 °F 32.0 °F 36% 30.02 in 10.0 mi ENE 5.8 mph - N/A   Clear
1:56 AM 57.0 °F 32.0 °F 39% 30.01 in 10.0 mi East 3.5 mph - N/A   Clear
2:56 AM 55.9 °F 32.0 °F 40% 30.00 in 10.0 mi ENE 4.6 mph - N/A   Clear
3:56 AM 55.0 °F 32.0 °F 42% 30.00 in 10.0 mi ENE 6.9 mph - N/A   Clear
4:56 AM 54.0 °F 30.9 °F 41% 30.01 in 10.0 mi NE 5.8 mph - N/A   Clear
5:56 AM 53.1 °F 30.0 °F 41% 30.05 in 10.0 mi East 5.8 mph - N/A   Clear
6:56 AM 53.1 °F 28.9 °F 40% 30.10 in 10.0 mi NE 4.6 mph - N/A   Scattered Clouds
7:56 AM 53.1 °F 30.0 °F 41% 30.10 in 10.0 mi ESE 6.9 mph - N/A   Clear
8:56 AM 55.0 °F 28.0 °F 35% 30.13 in 10.0 mi NE 9.2 mph - N/A   Clear
9:56 AM 57.0 °F 28.0 °F 33% 30.09 in 10.0 mi ESE 8.1 mph - N/A   Clear
10:56 AM 63.0 °F 27.0 °F 26% 30.09 in 10.0 mi NE 9.2 mph 16.1 mph N/A   Clear
11:56 AM 64.0 °F 26.1 °F 24% 30.07 in 10.0 mi Variable 6.9 mph - N/A   Clear
12:56 PM 64.0 °F 27.0 °F 25% 30.06 in 10.0 mi North 11.5 mph - N/A   Overcast
1:56 PM 64.0 °F 25.0 °F 23% 30.04 in 10.0 mi NNE 13.8 mph - N/A   Clear
2:56 PM 64.0 °F 24.1 °F 22% 30.02 in 10.0 mi NNE 9.2 mph - N/A   Clear
3:56 PM 64.9 °F 25.0 °F 22% 30.00 in 10.0 mi North 10.4 mph - N/A   Clear
4:56 PM 64.9 °F 26.1 °F 23% 29.98 in 8.0 mi NNE 9.2 mph - N/A   Clear
5:56 PM 64.0 °F 26.1 °F 24% 29.98 in 10.0 mi North 8.1 mph 18.4 mph N/A   Clear
6:56 PM 60.1 °F 28.0 °F 30% 29.98 in 10.0 mi North 6.9 mph - N/A   Clear
7:56 PM 57.0 °F 28.0 °F 33% 29.99 in 10.0 mi NNW 8.1 mph - N/A   Clear
8:56 PM 55.0 °F 26.1 °F 33% 30.00 in 10.0 mi NW 3.5 mph - N/A   Clear
9:56 PM 48.0 °F 28.0 °F 46% 29.99 in 10.0 mi Calm Calm - N/A   Clear
10:56 PM 46.0 °F 33.1 °F 61% 30.00 in 10.0 mi Calm Calm - N/A   Clear
11:56 PM 48.0 °F 30.9 °F 52% 30.01 in 10.0 mi NNW 9.2 mph - N/A   Clear